Погода в Новоуспеновке

Россия / Оренбургская область     50°52′08″N   55°28′39″E
темп.,
°C
ветер,
м/с
пор.,
м/с
влажн.,
%
обл.,
%
осадки,
мм/ч
давл.,
гПа
погр.,
м
11 апреля, вс
вс1123:00+8вюв815815 0.0 1030276
02:00+6вюв714766 0.0 1031266
05:00+5вюв7147852 0.0 1032261
08:00+4вюв7138447 0.0 1033268
11:00+9юв79745 0.0 1033401
14:00+14вюв68596 0.0 1032638
17:00+16вюв67486 0.0 1031795
20:00+10в610825 0.0 1032188
12 апреля, пн
пн1223:00+8вюв510825 0.0 1033163
02:00+6вюв48685 0.0 1034128
05:00+5вюв34667 0.0 103450
08:00+5вюв37665 0.0 1035145
11:00+11в56435 0.0 1035392
14:00+15в56325 0.0 1033699
17:00+16в56335 0.0 1033722
20:00+10всв59585 0.0 1034151
13 апреля, вт
вт1323:00+7в497315 0.0 1035152
02:00+5в497222 0.0 1035141
05:00+3в510665 0.0 1035152
08:00+4в5115640 0.0 1036235
11:00+11в69365 0.0 1035450
14:00+15в78285 0.0 1034831
17:00+16в672914 0.0 1033900
20:00+11в510605 0.0 1033183
14 апреля, ср
ср1423:00+8в511823 0.0 1033241
02:00+6в510920 0.0 1032205
05:00+5в599841 0.0 1032174
08:00+7в689090 0.0 1031317
11:00+12в68660 0.0 1029569
14:00+16в78490 0.0 1027897
17:00+16всв77500 0.0 10251060
20:00+13всв59650 0.0 1025191
15 апреля, чт
чт1523:00+10в510740 0.0 1025194
02:00+8в48810 0.0 1024127
05:00+7в47850 0.0 1024103
08:00+8в48770 0.0 1023196
11:00+14в57480 0.0 1022509
14:00+18вюв55340 0.0 10201160
17:00+19вюв45290 0.0 10181426
20:00+15в33462 0.0 101831